User: anonymous   Login
Location: Radomski Observatory
(40.2854°N, 79.5145°W)
Time: 02:21:04
(UTC-04:00)
Language:

Uosat F - Orbit

View from above orbital plane
View from above orbital plane
View from above satellite
View from above satellite

Ground track
Ground track

The orbit data is extracted from the following two-line orbital elements,

1 21575U 91050B   15115.16288295  .00000424  00000-0  14751-3 0  9990
2 21575 098.7363 102.1708 0008403 110.4117 020.3070 14.40611151248399
Epoch (UTC): 25 April 2015 03:54:33
Eccentricity: 0.0008403
inclination: 98.7363°
perigee height: 750 km
apogee height: 762 km
right ascension of ascending node: 102.1708°
argument of perigee: 110.4117°
revolutions per day: 14.40611151
mean anomaly at epoch: 20.3070°
orbit number at epoch: 24839

The dashed part of the orbit path shows where the satellite is in the earth's shadow,  

DLR